This demonstration page uses our WeatherBlox Daily Observations layout. Learn more.

Left ArrowRight Arrow

41.12389, -100.76542

Hourly Observations for October 1, 2022

Temp ( °F °C ) Dew Point ( °F °C ) Humidity (%) Winds ( mph kmh ) Pressure ( in mb ) Visibility ( mi km ) Precip ( " mm )
12:53 am 00:53 Clear 67 19.4 46 7.8 47 47 ESE 14 22 29.86 1011 10 16 0.00 0.00
1:53 am 01:53 Clear 63 17.2 46 7.8 54 54 ESE 8 13 29.88 1012 10 16 0.00 0.00
2:53 am 02:53 Clear 58 14.4 45 7.2 62 62 W 6 9 29.90 1012 10 16 0.00 0.00
3:53 am 03:53 Clear 58 14.4 45 7.2 62 62 E 3 6 29.89 1012 10 16 0.00 0.00
4:53 am 04:53 Clear 53 11.7 44 6.7 71 71 S 3 6 29.91 1013 10 16 0.00 0.00
5:53 am 05:53 Clear 49 9.4 43 6.1 80 80 E 3 6 29.93 1014 10 16 0.00 0.00
6:53 am 06:53 Clear 49 9.4 43 6.1 80 80 Calm 29.95 1014 10 16 0.00 0.00
7:53 am 07:53 Sunny 45 7.2 41 5 86 86 Calm 29.99 1016 10 16 0.00 0.00
8:53 am 08:53 Sunny 54 12.2 47 8.3 77 77 SSE 3 6 30.00 1016 10 16 0.00 0.00
9:53 am 09:53 Sunny 60 15.6 49 9.4 67 67 SSE 3 6 30.00 1016 10 16 0.00 0.00
10:53 am 10:53 Sunny 65 18.3 51 10.6 61 61 SE 3 6 30.00 1016 10 16 0.00 0.00
11:53 am 11:53 Sunny 73 22.8 51 10.6 46 46 SE 8 13 29.98 1015 10 16 0.00 0.00
12:53 pm 12:53 Sunny 77 25 48 8.9 36 36 SE 10 17 29.97 1015 10 16 0.00 0.00
1:53 pm 13:53 Sunny 82 27.8 47 8.3 29 29 SSE 12 19 29.96 1014 10 16 0.00 0.00
2:53 pm 14:53 Sunny 85 29.4 46 7.8 26 26 SE 14 22 29.94 1014 10 16 0.00 0.00
3:53 pm 15:53 Sunny 86 30 45 7.2 24 24 SSE 14 22 29.93 1013 10 16 0.00 0.00
4:53 pm 16:53 Sunny 86 30 47 8.3 26 26 SE 15 24 29.93 1013 10 16 0.00 0.00
5:53 pm 17:53 Sunny 84 28.9 47 8.3 27 27 SE 14 22 29.93 1014 10 16 0.00 0.00
6:53 pm 18:53 Sunny 82 27.8 47 8.3 29 29 SE 17 28 29.94 1014 10 16 0.00 0.00
7:53 pm 19:53 Clear 78 25.6 46 7.8 32 32 SE 13 20 29.97 1015 10 16 0.00 0.00
8:53 pm 20:53 Clear 76 24.4 46 7.8 35 35 SE 14 22 29.98 1015 10 16 0.00 0.00
9:53 pm 21:53 Clear 74 23.3 45 7.2 36 36 SE 12 19 30.00 1016 10 16 0.00 0.00
10:53 pm 22:53 Clear 73 22.8 43 6.1 34 34 SE 15 24 30.02 1017 10 16 0.00 0.00
11:53 pm 23:53 Mostly Cloudy 72 22.2 42 5.6 34 34 SSE 15 24 30.03 1017 10 16 0.00 0.00

Powered by AerisWeather